EW3525 Weather Reports


time (UTC)temp
C
wind
direction
speed
KPH
gust
KPH
rain 1hr
cm
rain 24hr
cm
rain mn
cm
humidity
%
barometer
mb
20260507224045 5 17 0.0 0.0 0.00 0.00 0.00 90 1016.5
20260507223545 5 17 0.0 0.0 0.00 0.00 0.00 89 1016.5
20260507223045 5 17 0.0 0.0 0.00 0.00 0.00 89 1016.5
20260507222546 5 17 0.0 0.0 0.00 0.00 0.00 89 1016.5
20260507222044 5 17 0.0 0.0 0.00 0.00 0.00 88 1016.5
20260507221544 6 17 0.0 0.0 0.00 0.00 0.00 89 1016.5
20260507221044 6 17 0.0 0.0 0.00 0.00 0.00 89 1016.5
20260507220545 6 17 0.0 0.0 0.00 0.00 0.00 89 1016.5
20260507220044 6 17 0.0 0.0 0.00 0.00 0.00 89 1016.5
20260507215547 6 17 0.0 0.0 0.00 0.00 0.00 89 1016.4
20260507215043 6 17 0.0 0.0 0.00 0.00 0.00 89 1016.4
20260507214543 6 17 0.0 0.0 0.00 0.00 0.00 89 1016.3
20260507214043 6 17 0.0 0.0 0.00 0.00 0.00 89 1016.3
20260507213544 6 17 0.0 0.0 0.00 0.00 0.00 88 1016.3
20260507213057 6 16 0.0 0.0 0.00 0.00 0.00 87 1016.3
20260507212546 6 155 0.0 0.0 0.00 0.00 0.00 87 1016.4
20260507212042 6 167 0.0 0.0 0.00 0.00 0.00 87 1016.4
20260507211544 6 167 0.0 0.0 0.00 0.00 0.00 87 1016.4
20260507211042 7 167 0.0 0.0 0.00 0.00 0.00 87 1016.5
20260507210542 7 167 0.0 0.0 0.00 0.00 0.00 87 1016.5
20260507210048 7 167 0.0 0.0 0.00 0.00 0.00 86 1016.4
20260507205541 7 167 0.0 0.0 0.00 0.00 0.00 86 1016.4
20260507205042 7 167 0.0 0.0 0.00 0.00 0.00 85 1016.4
20260507204551 7 167 0.0 0.0 0.00 0.00 0.00 86 1016.3
20260507204040 7 167 0.0 0.0 0.00 0.00 0.00 85 1016.3
20260507203542 7 167 0.0 0.0 0.00 0.00 0.00 85 1016.3
20260507203040 8 167 0.0 0.0 0.00 0.00 0.00 84 1016.2
20260507202542 8 167 0.0 0.0 0.00 0.00 0.00 83 1016.2
20260507202040 8 167 0.0 0.0 0.00 0.00 0.00 83 1016.1
20260507201541 8 167 0.0 0.0 0.00 0.00 0.00 82 1016.0
20260507201040 8 167 0.0 0.0 0.00 0.00 0.00 82 1015.9
20260507200540 8 167 0.0 0.0 0.00 0.00 0.00 81 1015.8
20260507200041 9 167 0.0 0.0 0.00 0.00 0.00 80 1015.7
20260507195540 9 167 0.0 0.0 0.00 0.00 0.00 79 1015.6
20260507195042 10 167 0.0 0.0 0.00 0.00 0.00 78 1015.6
20260507194539 10 167 0.0 0.0 0.00 0.00 0.00 77 1015.5
20260507194038 10 167 0.0 0.0 0.00 0.00 0.00 75 1015.4
20260507193539 11 167 0.0 0.0 0.00 0.00 0.00 74 1015.4
20260507193038 11 168 0.0 0.0 0.00 0.00 0.00 73 1015.4
20260507192538 11 178 0.0 0.0 0.00 0.00 0.00 73 1015.3
20260507192038 11 141 0.0 0.0 0.00 0.00 0.00 72 1015.3
20260507191538 11 181 0.0 3.2 0.00 0.00 0.00 71 1015.3
20260507191037 11 134 0.0 4.8 0.00 0.00 0.00 70 1015.3
20260507190537 12 119 1.6 6.4 0.00 0.00 0.00 69 1015.2
20260507190041 12 176 0.0 6.4 0.00 0.00 0.00 68 1015.2
20260507185536 12 184 0.0 6.4 0.00 0.00 0.00 68 1015.1
20260507185036 12 193 0.0 8.0 0.00 0.00 0.00 67 1015.1
20260507184539 12 179 1.6 8.0 0.00 0.00 0.00 67 1015.1
20260507184038 12 174 1.6 8.0 0.00 0.00 0.00 66 1015.1
20260507183536 13 143 3.2 8.0 0.00 0.00 0.00 65 1015.1
20260507183040 13 157 0.0 8.0 0.00 0.00 0.00 66 1015.1
20260507182535 13 186 0.0 8.0 0.00 0.00 0.00 65 1015.1
20260507182035 13 161 1.6 6.4 0.00 0.00 0.00 65 1015.1
20260507181535 13 180 1.6 6.4 0.00 0.00 0.00 66 1015.1
20260507181037 13 199 0.0 4.8 0.00 0.00 0.00 65 1015.0
20260507180534 13 201 0.0 4.8 0.00 0.00 0.00 66 1015.0
20260507180037 13 167 1.6 4.8 0.00 0.00 0.00 65 1015.0
20260507175535 13 151 0.0 4.8 0.00 0.00 0.00 67 1015.0
20260507175034 13 157 0.0 6.4 0.00 0.00 0.00 65 1015.0
20260507174538 13 170 1.6 9.7 0.00 0.00 0.00 64 1015.0
20260507174135 13 180 1.6 9.7 0.00 0.00 0.00 64 1014.9
20260507173532 13 168 1.6 4.8 0.00 0.00 0.00 64 1015.0
20260507173035 13 198 1.6 8.0 0.00 0.00 0.00 65 1015.0
20260507172533 13 181 1.6 9.7 0.00 0.00 0.00 65 1015.0
20260507172032 13 187 3.2 9.7 0.00 0.00 0.00 65 1015.0
20260507171533 13 176 1.6 6.4 0.00 0.00 0.00 65 1015.0
20260507171032 13 181 1.6 9.7 0.00 0.00 0.00 65 1015.0
20260507170532 13 175 3.2 9.7 0.00 0.00 0.00 64 1015.0
20260507170031 13 173 1.6 8.0 0.00 0.00 0.00 63 1015.0
20260507165531 13 142 1.6 6.4 0.00 0.00 0.00 64 1014.9
20260507165035 13 198 1.6 9.7 0.00 0.00 0.00 62 1015.0
20260507164531 13 186 1.6 8.0 0.00 0.00 0.00 63 1015.0
20260507164034 13 180 3.2 8.0 0.00 0.00 0.00 62 1015.0
20260507163530 13 150 1.6 8.0 0.00 0.00 0.00 63 1014.9
20260507163032 13 183 1.6 8.0 0.00 0.00 0.00 64 1014.9
20260507162530 13 178 3.2 12.9 0.00 0.00 0.00 63 1014.9
20260507162030 13 150 4.8 12.9 0.00 0.00 0.00 62 1015.0
20260507161529 13 187 1.6 9.7 0.00 0.00 0.00 62 1014.9
20260507161029 13 262 3.2 9.7 0.00 0.00 0.00 60 1015.0
20260507160533 13 173 3.2 9.7 0.00 0.00 0.00 57 1015.0
20260507160031 13 192 1.6 8.0 0.00 0.00 0.00 57 1015.0
20260507155528 14 190 3.2 8.0 0.00 0.00 0.00 58 1015.0
20260507155028 14 157 1.6 8.0 0.00 0.00 0.00 59 1015.0
20260507154528 14 159 1.6 8.0 0.00 0.00 0.00 59 1015.0
20260507154027 14 150 1.6 6.4 0.00 0.00 0.00 58 1015.0
20260507153527 14 156 1.6 6.4 0.00 0.00 0.00 58 1015.1
20260507153027 14 176 1.6 3.2 0.00 0.00 0.00 57 1015.1
20260507152527 14 232 1.6 3.2 0.00 0.00 0.00 53 1015.1
20260507152027 14 157 0.0 3.2 0.00 0.00 0.00 46 1015.0
20260507151527 14 169 0.0 3.2 0.00 0.00 0.00 51 1015.0
20260507151026 14 180 0.0 3.2 0.00 0.00 0.00 52 1015.0
20260507150528 15 19 0.0 3.2 0.00 0.00 0.00 48 1015.0
20260507150027 15 360 0.0 4.8 0.00 0.00 0.00 50 1015.0
20260507145529 14 152 0.0 4.8 0.00 0.00 0.00 49 1015.1
20260507145025 14 199 0.0 3.2 0.00 0.00 0.00 49 1015.1
20260507144525 15 146 0.0 4.8 0.00 0.00 0.00 49 1015.1
20260507144024 15 186 0.0 4.8 0.00 0.00 0.00 48 1015.1
20260507143528 15 223 0.0 3.2 0.00 0.00 0.00 50 1015.1
20260507143023 15 35 0.0 8.0 0.00 0.00 0.00 48 1015.1
20260507142523 15 143 0.0 8.0 0.00 0.00 0.00 45 1015.2
20260507142023 16 171 0.0 4.8 0.00 0.00 0.00 46 1015.2
20260507141523 16 170 0.0 8.0 0.00 0.00 0.00 45 1015.3
20260507141026 16 185 0.0 4.8 0.00 0.00 0.00 48 1015.2
20260507140523 15 151 0.0 3.2 0.00 0.00 0.00 49 1015.3
20260507140022 15 122 0.0 3.2 0.00 0.00 0.00 46 1015.2
20260507135522 15 198 0.0 3.2 0.00 0.00 0.00 47 1015.2
20260507135022 15 40 0.0 3.2 0.00 0.00 0.00 51 1015.2
20260507134522 15 70 0.0 0.0 0.00 0.00 0.00 51 1015.2
20260507134021 15 155 0.0 0.0 0.00 0.00 0.00 44 1015.3
20260507133522 15 9 0.0 3.2 0.00 0.00 0.00 46 1015.3
20260507133021 15 360 0.0 3.2 0.00 0.00 0.00 45 1015.4
20260507132522 15 58 0.0 4.8 0.00 0.00 0.00 46 1015.5
20260507132022 15 349 0.0 4.8 0.00 0.00 0.00 46 1015.5
20260507131521 15 158 1.6 4.8 0.00 0.00 0.00 46 1015.5
20260507131020 15 43 0.0 4.8 0.00 0.00 0.00 51 1015.5
20260507130524 15 144 0.0 4.8 0.00 0.00 0.00 48 1015.5
20260507130020 15 196 0.0 3.2 0.00 0.00 0.00 48 1015.5
20260507125524 15 190 0.0 3.2 0.00 0.00 0.00 51 1015.4
20260507125019 14 180 0.0 4.8 0.00 0.00 0.00 47 1015.5
20260507124523 15 180 1.6 6.4 0.00 0.00 0.00 47 1015.6
20260507124019 15 188 0.0 3.2 0.00 0.00 0.00 48 1015.6
20260507123519 14 150 0.0 3.2 0.00 0.00 0.00 49 1015.6
20260507123018 14 130 0.0 4.8 0.00 0.00 0.00 47 1015.6
20260507122518 14 206 0.0 3.2 0.00 0.00 0.00 45 1015.6
20260507122018 14 176 0.0 3.2 0.00 0.00 0.00 46 1015.7
20260507121518 14 156 0.0 3.2 0.00 0.00 0.00 49 1015.6
20260507121021 14 5 0.0 3.2 0.00 0.00 0.00 49 1015.7
20260507120518 14 164 0.0 3.2 0.00 0.00 0.00 48 1015.7
20260507120018 14 9 0.0 3.2 0.00 0.00 0.00 47 1015.7
20260507115518 14 196 0.0 3.2 0.00 0.00 0.00 45 1015.7
20260507115017 14 206 0.0 3.2 0.00 0.00 0.00 47 1015.7
20260507114516 14 199 0.0 3.2 0.00 0.00 0.00 46 1015.6
20260507114016 14 190 0.0 4.8 0.00 0.00 0.00 46 1015.7
20260507113517 15 197 1.6 4.8 0.00 0.00 0.00 43 1015.7
20260507113030 16 355 0.0 4.8 0.00 0.00 0.00 42 1015.6
20260507112516 17 355 0.0 4.8 0.00 0.00 0.00 44 1015.6
20260507112017 17 340 0.0 4.8 0.00 0.00 0.00 45 1015.7
20260507111521 17 17 0.0 8.0 0.00 0.00 0.00 46 1015.7
20260507111012 17 5 3.2 8.0 0.00 0.00 0.00 45 1015.7
20260507110516 16 30 0.0 4.8 0.00 0.00 0.00 49 1015.7
20260507110110 15 11 0.0 4.8 0.00 0.00 0.00 52 1015.7
20260507105510 13 173 0.0 3.2 0.00 0.00 0.00 50 1015.7
20260507105009 14 221 0.0 3.2 0.00 0.00 0.00 48 1015.8
20260507104511 15 342 0.0 6.4 0.00 0.00 0.00 49 1015.7
20260507104009 15 36 1.6 6.4 0.00 0.00 0.00 50 1015.8
20260507103508 15 340 0.0 4.8 0.00 0.00 0.00 47 1015.9
20260507103009 16 107 0.0 3.2 0.00 0.00 0.00 50 1015.9
20260507102512 16 26 0.0 3.2 0.00 0.00 0.00 51 1016.0
20260507102008 15 76 0.0 3.2 0.00 0.00 0.00 46 1016.0
20260507101507 16 30 0.0 4.8 0.00 0.00 0.00 46 1016.0
20260507101004 16 355 1.6 4.8 0.00 0.00 0.00 58 1016.1
20260507100503 15 21 0.0 3.2 0.00 0.00 0.00 55 1016.0
20260507100003 15 350 0.0 4.8 0.00 0.00 0.00 61 1016.0
20260507095501 15 260 0.0 6.4 0.00 0.00 0.00 55 1016.1
20260507095101 15 10 1.6 6.4 0.00 0.00 0.00 60 1016.1
20260507094558 15 34 1.6 6.4 0.00 0.00 0.00 61 1016.1
20260507094057 13 204 0.0 3.2 0.00 0.00 0.00 62 1016.1
20260507093557 14 360 0.0 6.4 0.00 0.00 0.00 59 1016.1
20260507093058 15 162 0.0 6.4 0.00 0.00 0.00 67 1016.1
20260507092554 13 109 0.0 6.4 0.00 0.00 0.00 64 1016.0
20260507092053 14 339 1.6 6.4 0.00 0.00 0.00 67 1016.1
20260507091554 14 44 1.6 3.2 0.00 0.00 0.00 68 1016.2
20260507091051 13 33 0.0 3.2 0.00 0.00 0.00 67 1016.2
20260507090549 13 349 0.0 3.2 0.00 0.00 0.00 73 1016.3
20260507090049 13 65 0.0 3.2 0.00 0.00 0.00 73 1016.2
20260507085548 12 355 0.0 3.2 0.00 0.00 0.00 75 1016.2
20260507085046 12 32 0.0 6.4 0.00 0.00 0.00 75 1016.3
20260507084551 12 10 1.6 6.4 0.00 0.00 0.00 75 1016.3
20260507084042 12 257 0.0 3.2 0.00 0.00 0.00 76 1016.3
20260507083541 11 163 0.0 4.8 0.00 0.00 0.00 77 1016.3
20260507083047 11 213 0.0 3.2 0.00 0.00 0.00 81 1016.3
20260507082543 11 22 0.0 3.2 0.00 0.00 0.00 81 1016.4
20260507082042 10 93 0.0 4.8 0.00 0.00 0.00 84 1016.4
20260507081535 10 21 0.0 4.8 0.00 0.00 0.00 84 1016.3
20260507081036 9 360 0.0 4.8 0.00 0.00 0.00 87 1016.4
20260507080533 8 9 1.6 3.2 0.00 0.00 0.00 88 1016.4
20260507080032 8 166 0.0 3.2 0.00 0.00 0.00 88 1016.4
20260507075532 8 20 0.0 3.2 0.00 0.00 0.00 88 1016.3
20260507075029 7 57 0.0 3.2 0.00 0.00 0.00 90 1016.3
20260507074529 7 360 0.0 4.8 0.00 0.00 0.00 90 1016.3
20260507074026 7 347 1.6 4.8 0.00 0.00 0.00 91 1016.3
20260507073525 7 355 0.0 3.2 0.00 0.00 0.00 91 1016.3
20260507073024 6 355 0.0 4.8 0.00 0.00 0.00 92 1016.3
20260507072523 6 12 0.0 4.8 0.00 0.00 0.00 93 1016.3
20260507072021 6 178 0.0 3.2 0.00 0.00 0.00 93 1016.3
20260507071519 6 15 0.0 3.2 0.00 0.00 0.00 94 1016.2
20260507071025 5 22 0.0 3.2 0.00 0.00 0.00 94 1016.2
20260507070517 5 15 0.0 3.2 0.00 0.00 0.00 94 1016.2
20260507070016 5 350 0.0 3.2 0.00 0.00 0.00 94 1016.2
20260507065519 5 27 0.0 3.2 0.00 0.00 0.00 94 1016.2
20260507065014 4 26 0.0 3.2 0.00 0.00 0.00 94 1016.2
20260507064514 4 30 0.0 3.2 0.00 0.00 0.00 94 1016.3
20260507064014 4 24 0.0 3.2 0.00 0.00 0.00 94 1016.3
20260507063510 3 14 0.0 3.2 0.00 0.00 0.00 94 1016.3
20260507063012 3 15 0.0 3.2 0.00 0.00 0.00 94 1016.2
20260507062510 3 32 0.0 3.2 0.00 0.00 0.00 94 1016.2
20260507062009 3 30 0.0 3.2 0.00 0.00 0.00 94 1016.2
20260507061509 3 34 0.0 3.2 0.00 0.00 0.00 94 1016.2
20260507061009 3 33 0.0 3.2 0.00 0.00 0.00 94 1016.1
20260507060507 2 35 0.0 3.2 0.00 0.00 0.00 94 1016.1
20260507060007 2 42 0.0 3.2 0.00 0.00 0.00 94 1016.1
20260507055507 2 42 0.0 0.0 0.00 0.00 0.00 94 1016.0
20260507055005 2 42 0.0 3.2 0.00 0.00 0.00 94 1016.0
20260507054506 2 42 0.0 3.2 0.00 0.00 0.00 94 1016.0
20260507054004 2 42 0.0 0.0 0.00 0.00 0.00 94 1016.0
20260507053504 2 42 0.0 0.0 0.00 0.00 0.00 94 1015.9
20260507053003 1 42 0.0 0.0 0.00 0.00 0.00 93 1015.9
20260507052501 1 42 0.0 0.0 0.00 0.00 0.00 93 1015.8
20260507052002 1 42 0.0 3.2 0.00 0.00 0.00 93 1015.7
20260507051502 1 42 0.0 3.2 0.00 0.00 0.00 93 1015.8
20260507051001 1 42 0.0 3.2 0.00 0.00 0.00 93 1015.8
20260507050603 1 42 0.0 3.2 0.00 0.00 0.00 93 1015.7
20260507050100 1 42 0.0 3.2 0.00 0.00 0.00 93 1015.7
20260507045600 1 42 0.0 0.0 0.00 0.00 0.00 93 1015.7
20260507045059 1 42 0.0 0.0 0.00 0.00 0.00 93 1015.6
20260507044616 1 42 0.0 3.2 0.00 0.00 0.00 93 1015.6
20260507044058 1 42 0.0 1.6 0.00 0.00 0.00 93 1015.6
20260507043556 1 42 0.0 0.0 0.00 0.00 0.00 93 1015.6
20260507043058 1 42 0.0 0.0 0.00 0.00 0.00 93 1015.6
20260507042555 1 42 0.0 0.0 0.00 0.00 0.00 93 1015.6
20260507042055 1 42 0.0 0.0 0.00 0.00 0.00 93 1015.6
20260507041601 1 42 0.0 0.0 0.00 0.00 0.00 92 1015.6
20260507041053 1 42 0.0 0.0 0.00 0.00 0.00 92 1015.6
20260507040553 1 42 0.0 0.0 0.00 0.00 0.00 93 1015.6
20260507040100 1 42 0.0 0.0 0.00 0.00 0.00 93 1015.6
20260507035551 1 42 0.0 0.0 0.00 0.00 0.00 92 1015.6
20260507035051 1 42 0.0 0.0 0.00 0.00 0.00 92 1015.6
20260507034556 1 42 0.0 0.0 0.00 0.00 0.00 93 1015.6
20260507034049 1 42 0.0 0.0 0.00 0.00 0.00 93 1015.5
20260507033548 1 42 0.0 0.0 0.00 0.00 0.00 92 1015.5
20260507033048 1 42 0.0 0.0 0.00 0.00 0.00 92 1015.5
20260507032547 1 42 0.0 0.0 0.00 0.00 0.00 92 1015.5
20260507032047 1 42 0.0 0.0 0.00 0.00 0.00 93 1015.5
20260507031547 1 42 0.0 0.0 0.00 0.00 0.00 92 1015.6
20260507031047 1 42 0.0 0.0 0.00 0.00 0.00 92 1015.6
20260507030547 1 42 0.0 0.0 0.00 0.00 0.00 92 1015.6
20260507030052 1 42 0.0 0.0 0.00 0.00 0.00 92 1015.5
20260507025547 1 42 0.0 0.0 0.00 0.00 0.00 92 1015.5
20260507025047 1 42 0.0 0.0 0.00 0.00 0.00 92 1015.6
20260507024546 1 42 0.0 0.0 0.00 0.00 0.00 92 1015.5
20260507024045 1 42 0.0 0.0 0.00 0.00 0.00 92 1015.5
20260507023544 1 42 0.0 0.0 0.00 0.00 0.00 92 1015.5
20260507023044 1 42 0.0 0.0 0.00 0.00 0.00 92 1015.5
20260507022543 1 42 0.0 0.0 0.00 0.00 0.00 92 1015.5
20260507022044 1 42 0.0 0.0 0.00 0.00 0.00 92 1015.5
20260507021546 1 42 0.0 0.0 0.00 0.00 0.00 92 1015.5
20260507021042 2 42 0.0 0.0 0.00 0.00 0.00 91 1015.4
20260507020542 2 42 0.0 0.0 0.00 0.00 0.00 91 1015.5
20260507020042 2 42 0.0 0.0 0.00 0.00 0.00 91 1015.4
20260507015540 2 42 0.0 0.0 0.00 0.00 0.00 91 1015.4
20260507015039 2 42 0.0 0.0 0.00 0.00 0.00 91 1015.4
20260507014539 2 42 0.0 0.0 0.00 0.00 0.00 91 1015.3
20260507014038 2 42 0.0 0.0 0.00 0.00 0.00 91 1015.3
20260507013540 2 42 0.0 0.0 0.00 0.00 0.00 91 1015.2
20260507013039 2 42 0.0 0.0 0.00 0.00 0.00 91 1015.3
20260507012536 2 42 0.0 0.0 0.00 0.00 0.00 91 1015.3
20260507012036 2 42 0.0 0.0 0.00 0.00 0.00 91 1015.3
20260507011540 2 42 0.0 3.2 0.00 0.00 0.00 91 1015.4
20260507011035 3 42 0.0 0.0 0.00 0.00 0.00 91 1015.4
20260507010534 3 42 0.0 3.2 0.00 0.00 0.00 91 1015.3
20260507010034 3 42 0.0 3.2 0.00 0.00 0.00 91 1015.3
20260507005534 3 42 0.0 3.2 0.00 0.00 0.00 91 1015.3
20260507005133 3 42 0.0 3.2 0.00 0.00 0.00 91 1015.3
20260507004532 3 42 0.0 1.6 0.00 0.00 0.00 90 1015.4
20260507004031 3 42 0.0 1.6 0.00 0.00 0.00 90 1015.3
20260507003535 3 42 0.0 1.6 0.00 0.00 0.00 90 1015.3
20260507003031 3 42 0.0 3.2 0.00 0.00 0.00 90 1015.4
20260507002531 3 42 0.0 3.2 0.00 0.00 0.00 90 1015.4
20260507002031 3 42 0.0 3.2 0.00 0.00 0.00 90 1015.4
20260507001536 3 42 0.0 3.2 0.00 0.00 0.00 90 1015.4
20260507001030 3 42 0.0 0.0 0.00 0.00 0.00 90 1015.4
20260507000529 3 42 0.0 0.0 0.00 0.00 0.00 89 1015.4
20260507000028 3 42 0.0 0.0 0.00 0.00 0.00 89 1015.4
20260506235528 3 42 0.0 0.0 0.00 0.00 0.00 89 1015.4
20260506235027 3 42 0.0 0.0 0.00 0.00 0.00 89 1015.4
20260506234533 3 42 0.0 0.0 0.00 0.00 0.00 89 1015.3
20260506234026 3 42 0.0 0.0 0.00 0.00 0.00 89 1015.3
20260506233526 3 42 0.0 0.0 0.00 0.00 0.00 89 1015.3
20260506233026 3 42 0.0 0.0 0.00 0.00 0.00 88 1015.2
20260506232524 3 42 0.0 0.0 0.00 0.00 0.00 88 1015.2
20260506232024 3 42 0.0 0.0 0.00 0.00 0.00 88 1015.2
20260506231524 3 42 0.0 0.0 0.00 0.00 0.00 88 1015.2
20260506231022 3 42 0.0 0.0 0.00 0.00 0.00 87 1015.2
20260506230521 4 42 0.0 0.0 0.00 0.00 0.00 87 1015.1
20260506230021 4 42 0.0 0.0 0.00 0.00 0.00 87 1015.1
20260506225520 4 42 0.0 0.0 0.00 0.00 0.00 86 1015.1
20260506225019 4 42 0.0 0.0 0.00 0.00 0.00 87 1015.1
20260506224526 4 42 0.0 0.0 0.00 0.00 0.00 87 1015.1